Regional Weather Roundup
Issued by NWS Green Bay, WI

Home | Current Version | Previous Version | Text Only | Print | Product List | Glossary On
Versions: 1 2 3 4 5 6 7 8 9 10 11 12 13 14 15 16 17 18 19 20 21 22 23 24 25 26 27 28 29 30 31 32 33 34 35 36 37 38 39 40 41 42 43 44 45 46 47 48 49 50
766
ASUS43 KGRB 140200
RWRGRB

NORTH-CENTRAL AND NORTHEAST WISCONSIN REGIONAL WEATHER ROUNDUP
NATIONAL WEATHER SERVICE GREEN BAY WI
800 PM CST SAT FEB 13 2016

WIZ005-009-010>012-018-019-140300-
NORTH CENTRAL WISCONSIN

CITY           SKY/WX    TMP DP  RH WIND       PRES   REMARKS
IRONWOOD       CLOUDY    -9 -11  92 CALM      30.36S
MANITOWISH WTR NOT AVBL
ARBOR VITAE    NOT AVBL
EAGLE RIVER    NOT AVBL
LAND O LAKES   NOT AVBL
RHINELANDER    CLOUDY    -7 -14  71 CALM      30.36S
PHILLIPS       NOT AVBL
ANTIGO         NOT AVBL
TOMAHAWK       NOT AVBL
MERRILL        NOT AVBL
$$

WIZ013-073-140300-
NORTHEAST WISCONSIN

CITY           SKY/WX    TMP DP  RH WIND       PRES   REMARKS
IRON MOUNTAIN  CLOUDY    -4 -12  68 CALM      30.38F
MARINETTE      CLEAR      3  -8  60 CALM      30.44F
$$

WIZ017-030-035>037-045-140300-
CENTRAL WISCONSIN

CITY           SKY/WX    TMP DP  RH WIND       PRES   REMARKS
MEDFORD        NOT AVBL
WAUSAU         CLOUDY    -1 -10  65 CALM      30.41S
MOSINEE        CLEAR      0 -11  60 CALM      30.42S
MARSHFIELD     CLOUDY     0 -12  57 E3        30.39S
WISC RAPIDS    CLOUDY    -1 -12  59 CALM      30.45S
STEVENS POINT  NOT AVBL
WAUPACA        NOT AVBL
SHAWANO        NOT AVBL
CLINTONVILLE   NOT AVBL
WAUTOMA        NOT AVBL
$$

WIZ038-039-048-051-140300-
FOX VALLEY

CITY           SKY/WX    TMP DP  RH WIND       PRES   REMARKS
NWS GREEN BAY  CLOUDY     3  -8  60 SW5       30.46F WCI  -6
APPLETON       PTCLDY     3 -11  51 VRB5      30.43F WCI  -6
OSHKOSH        CLOUDY     2  -9  60 S5        30.46S WCI  -8
FOND DU LAC    CLOUDY    -2  -9  72 CALM      30.46F
$$

WIZ022-050-052-140300-
EAST CENTRAL WISCONSIN

CITY           SKY/WX    TMP DP  RH WIND       PRES   REMARKS
EPHRAIM        NOT AVBL
STURGEON BAY   CLEAR      3  -8  60 S6        30.47F WCI  -8
MANITOWOC      NOT AVBL
SHEBOYGAN      CLEAR      3  -6  66 SW6       30.47F WCI  -8
$$

LMZ563-521-522-541>543-140300-
LAKESHORE

STATION/POSITION TIME  TEMP    WIND        PRES    VSBY  WAVE
                       AIR SEA DIR/SP/G                  HT/PER
                 (UTC) (F)     (DEG/KT/KT) (MB)    (MI)  (FT/S)
SHEBOYGAN LKSHOR 0100    9     260/  7/  8 1034.4F
KEWAUNEE LKSHORE 0100    8     260/  7/ 10 1031.3F
SISTER BAY LKSHO 0120    7     230/  6/  8   N/A
CHAMBERS ISLAND  0100    8     170/  3/  7 1031.5S
MENOMINEE LKSHOR 0100    9     230/  7     1030.4S
$$




USA.gov is the U.S. government's official web portal to all federal, state and local government web resources and services.